sat.trackr.live / text

‹ back to catalog

QIANFAN-134

NORAD 69080 · 2026-104H

PAYLOAD ACTIVE UNKNOWN

§ Identity

Operator
Country
PRC
Launch date
2026-05-12
Launch site
TAISC
Launch vehicle
Mass (kg)
RCS (m²)

External: N2YO · Heavens-Above · Gunter

§ Orbital elements

Epoch: 2026-05-25T04:39:17.334432Z

Period
101.46 min
Inclination
88.9869°
Eccentricity
0.0004224
Mean motion
14.19321456 rev/d
Perigee alt
824.6 km
Apogee alt
830.7 km
Semi-major
7,205.8 km
B*
3.1344e-5
RAAN
344.2480°
Arg perigee
154.2288°
Mean anomaly
205.9112°
Rev number
182

§ Raw data

QIANFAN-1341 69080U 26104H   26145.19395063  .00000080  00000+0  31344-4 0  99962 69080  88.9869 344.2480 0004224 154.2288 205.9112 14.19321456  1827

JSON: /api/v1/satellites/69080 · /tle

For live sub-satellite position, see the globe view (requires WebGL).

§ Visibility from observer

Set your observer location to see the next 7 days of passes ≥ 10°. The values pass through the URL so the page stays shareable.

No JS? Fill the form by hand. The geolocation button needs JavaScript.